User: anonymous   Login
Location: Tucson
(32.2217°N, 110.9265°W)
Time: 08:09:23
(UTC-07:00)
Language:

deb Explorer IX - Orbit

View from above orbital plane
View from above orbital plane
View from above satellite
View from above satellite

Ground track
Ground track

The orbit data is extracted from the following two-line orbital elements,

1    85U 61004C   21297.55536743  .00004951  00000-0  10702-2 0  9994
2    85  38.7650  17.1581 0377291 196.8235 161.9698 14.22406386  1401
Epoch (UTC): 24 October 2021 13:19:43
Eccentricity: 0.0377291
inclination: 38.7650°
perigee height: 546 km
apogee height: 1089 km
right ascension of ascending node: 17.1581°
argument of perigee: 196.8235°
revolutions per day: 14.22406386
mean anomaly at epoch: 161.9698°
orbit number at epoch: 140

The dashed part of the orbit path shows where the satellite is in the earth's shadow,  

DLR